Elmendorf Air Force Base, AK

12:07 AM AKST on February 07, 2016 (GMT -0900)
Elmendorf Air Force Base

Weather History for PAED - December, 2012

Change the Weather History Date:

Wednesday, December 5, 2012

  Actual Average (PANC) Record (PANC)
Temperature  
Mean Temperature -8 °F 20 °F  
Max Temperature 1 °F 25 °F 46 °F (2002)
Min Temperature -17 °F 14 °F -36 °F (1916)
Degree Days  
Heating Degree Days 73    
Month to date heating degree days  
Since 1 July heating degree days  
Cooling Degree Days 0    
Month to date cooling degree days  
Year to date cooling degree days  
Moisture  
Dew Point -15 °F    
Average Humidity 72    
Maximum Humidity 77    
Minimum Humidity 62    
Precipitation  
Precipitation 0.00 in 0.04 in 0.70 in (1934)
Month to date precipitation 0.19  
Year to date precipitation 15.66  
Snow  
Snow 0.00 in 0.60 in 3.90 in (1986)
Month to date snowfall 2.7  
Since 1 July snowfall 24.1  
Snow Depth -    
Sea Level Pressure  
Sea Level Pressure 29.58 in    
Wind  
Wind Speed 3 mph (ESE)    
Max Wind Speed 7 mph    
Max Gust Speed -    
Visibility 10 miles    
Events      
T = Trace of Precipitation, MM = Missing Value Source: NWS Daily Summary

Daily Weather History Graph

Daily Weather History Graph

Search for Another Location

Airport or City:

Trip Planner

Search our weather history database for the weather conditions in past years. The results will help you decide how hot, cold, wet, or windy it might be!

Date:

Astronomy

Dec. 05, 2012 Rise Set
Actual Time 9:54 AM AKST 3:45 PM AKST
Civil Twilight 8:55 AM AKST 4:44 PM AKST
Nautical Twilight 7:56 AM AKST 5:43 PM AKST
Astronomical Twilight 7:03 AM AKST 6:36 PM AKST
Moon No Moon Rise 12:53 PM AKST (12/5)
Length of Visible Light 7h 49m
Length of Day
5h 50m
Waning Gibbous, 58% of the Moon is Illuminated
Dec 5
Waning Gibbous
Dec 6
Last Quarter
Dec 12
New
Dec 19
First Quarter
Dec 28
Full

Hourly Weather History & Observations

Time (AKST) Temp. Windchill Dew Point Humidity Pressure Visibility Wind Dir Wind Speed Gust Speed Precip Events Conditions
12:55 AM -13.5 °F -23.3 °F -19.8 °F 73% 29.52 in 10.0 mi SE 3.5 mph - N/A   Clear
1:55 AM -14.1 °F -26.3 °F -20.9 °F 71% 29.53 in 10.0 mi SE 4.6 mph - N/A   Clear
2:55 AM -13.7 °F -25.9 °F -19.8 °F 74% 29.54 in 10.0 mi ESE 4.6 mph - N/A   Clear
3:55 AM -11.6 °F - -17.5 °F 75% 29.54 in 10.0 mi Calm Calm - N/A   Clear
5:55 AM -17.1 °F - -23.6 °F 72% 29.55 in 10.0 mi Calm Calm - N/A   Clear
6:55 AM -13.2 °F - -19.3 °F 74% 29.55 in 10.0 mi Calm Calm - N/A   Clear
7:55 AM -15.2 °F - -21.5 °F 73% 29.55 in 10.0 mi Calm Calm - N/A   Clear
8:55 AM -14.8 °F - -21.1 °F 73% 29.55 in 10.0 mi Calm Calm - N/A   Clear
9:55 AM -12.5 °F -24.4 °F -18.2 °F 76% 29.57 in 10.0 mi East 4.6 mph - N/A   Clear
10:55 AM -12.8 °F -24.9 °F -18.6 °F 75% 29.58 in 10.0 mi ESE 4.6 mph - N/A   Clear
11:55 AM -0.8 °F -13.9 °F -7.6 °F 73% 29.58 in 10.0 mi NE 6.9 mph - N/A   Clear
12:55 PM -0.4 °F - -8.5 °F 69% 29.59 in 10.0 mi Calm Calm - N/A   Clear
1:55 PM 1.8 °F -5.8 °F -7.8 °F 64% 29.59 in 10.0 mi Variable 3.5 mph - N/A   Clear
2:55 PM 1.8 °F -9.5 °F -8.7 °F 62% 29.59 in 10.0 mi Variable 5.8 mph - N/A   Clear
3:55 PM -2.2 °F -12.5 °F -8.5 °F 75% 29.59 in 10.0 mi East 4.6 mph - N/A   Clear
4:55 PM -8.1 °F -17.1 °F -13.5 °F 77% 29.59 in 10.0 mi SE 3.5 mph - N/A   Clear
5:55 PM -9.9 °F -23.4 °F -15.9 °F 75% 29.59 in 10.0 mi ESE 5.8 mph - N/A   Clear
6:55 PM -0.4 °F - -9.2 °F 66% 29.59 in 10.0 mi Calm Calm - N/A   Clear
7:55 PM -9.0 °F -22.3 °F -15.9 °F 72% 29.60 in 10.0 mi Variable 5.8 mph - N/A   Clear
8:55 PM -2.6 °F -10.8 °F -10.5 °F 69% 29.60 in 10.0 mi East 3.5 mph - N/A   Clear
9:55 PM -8.7 °F -20.0 °F -15.0 °F 74% 29.61 in 10.0 mi ESE 4.6 mph - N/A   Clear
10:55 PM -4.9 °F -15.6 °F -12.8 °F 69% 29.62 in 10.0 mi ESE 4.6 mph - N/A   Clear
11:55 PM -8.9 °F - -15.2 °F 74% 29.63 in 10.0 mi Calm Calm - N/A   Clear